Weather History for KECP - July, 2013

Change the Weather History Date:

Monday, July 1, 2013

  Actual Average Record
Temperature  
Mean Temperature 79 °F -  
Max Temperature 87 °F - 97 °F (2014)
Min Temperature 70 °F - 70 °F (2013)
Degree Days  
Heating Degree Days 0    
Cooling Degree Days 12    
Growing Degree Days 28 (Base 50)    
Moisture  
Dew Point 71 °F    
Average Humidity 82    
Maximum Humidity 94    
Minimum Humidity 63    
Precipitation  
Precipitation 0.00 in - 0.73 in (2010)
Month to date precipitation  
Year to date precipitation 16.89  
Sea Level Pressure  
Sea Level Pressure 29.86 in    
Wind  
Wind Speed 3 mph (South)    
Max Wind Speed 20 mph    
Max Gust Speed 40 mph    
Visibility 9 miles    
Events Rain    
T = Trace of Precipitation, MM = Missing Value Source: NWS Daily Summary

Daily Weather History Graph

Daily Weather History Graph

Search for Another Location

Airport or City:

Trip Planner

Search our weather history database for the weather conditions in past years. The results will help you decide how hot, cold, wet, or windy it might be!

Date:

Astronomy

Jul. 01, 2013 Rise Set
Actual Time 6:44 AM EDT 8:49 PM EDT
Civil Twilight 6:17 AM EDT 9:16 PM EDT
Nautical Twilight 5:44 AM EDT 9:50 PM EDT
Astronomical Twilight 5:08 AM EDT 10:25 PM EDT
Moon 1:58 AM EDT (7/1) 3:17 PM EDT (7/1)
Length of Visible Light 14h 59m
Length of Day
14h 04m
Waning Crescent, 35% of the Moon is Illuminated
Jul 1
Waning Crescent
Jul 8
New
Jul 15
First Quarter
Jul 22
Full
Jul 29
Last Quarter

Hourly Weather History & Observations

Time (EDT) Temp. Heat Index Dew Point Humidity Pressure Visibility Wind Dir Wind Speed Gust Speed Precip Events Conditions
12:53 AM 73.9 °F - 71.1 °F 91% 29.81 in 9.0 mi Calm Calm - N/A   Clear
1:53 AM 73.0 °F - 70.0 °F 90% 29.82 in 10.0 mi Calm Calm - N/A   Clear
2:53 AM 72.0 °F - 70.0 °F 93% 29.81 in 10.0 mi Calm Calm - N/A   Clear
3:53 AM 71.1 °F - 69.1 °F 93% 29.80 in 9.0 mi East 3.5 mph - N/A   Clear
4:53 AM 71.1 °F - 69.1 °F 93% 29.81 in 8.0 mi Calm Calm - N/A   Clear
5:53 AM 71.1 °F - 68.0 °F 90% 29.81 in 8.0 mi Calm Calm - N/A   Clear
6:53 AM 70.0 °F - 66.9 °F 90% 29.83 in 8.0 mi Calm Calm - N/A   Clear
7:20 AM 69.8 °F - 68.0 °F 94% 29.81 in 8.0 mi Calm Calm - N/A   Partly Cloudy
7:46 AM 71.6 °F - 69.8 °F 94% 29.81 in 9.0 mi Calm Calm - N/A   Mostly Cloudy
7:53 AM 72.0 °F - 70.0 °F 93% 29.84 in 9.0 mi Calm Calm - N/A   Scattered Clouds
8:53 AM 73.9 °F - 71.1 °F 91% 29.86 in 10.0 mi Calm Calm - N/A   Clear
9:53 AM 79.0 °F - 73.9 °F 84% 29.86 in 10.0 mi Calm Calm - N/A   Clear
10:53 AM 82.0 °F 89.4 °F 75.9 °F 82% 29.87 in 10.0 mi SSE 3.5 mph - N/A   Partly Cloudy
11:53 AM 84.9 °F 91.4 °F 73.0 °F 67% 29.89 in 10.0 mi SSE 6.9 mph - N/A   Mostly Cloudy
12:53 PM 84.9 °F 91.4 °F 73.0 °F 67% 29.88 in 10.0 mi South 9.2 mph - N/A   Scattered Clouds
1:53 PM 86.0 °F 93.0 °F 73.0 °F 65% 29.86 in 10.0 mi SSE 15.0 mph 19.6 mph N/A   Scattered Clouds
2:48 PM 73.4 °F - 69.8 °F 88% 29.85 in 1.0 mi WSW 19.6 mph 40.3 mph 0.00 in Rain Heavy Rain
2:53 PM 73.0 °F - 66.9 °F 81% 29.88 in 1.0 mi West 12.7 mph 26.5 mph N/A Rain Heavy Rain
3:00 PM 73.4 °F - 66.2 °F 78% 29.84 in 3.0 mi West 5.8 mph - N/A Rain Rain
3:53 PM 80.1 °F 82.9 °F 69.1 °F 69% 29.86 in 10.0 mi South 6.9 mph - N/A   Overcast
4:53 PM 84.9 °F 90.1 °F 71.1 °F 63% 29.86 in 10.0 mi South 10.4 mph - N/A   Partly Cloudy
5:53 PM 81.0 °F 84.9 °F 71.1 °F 72% 29.86 in 10.0 mi South 8.1 mph - N/A   Overcast
6:53 PM 82.9 °F 87.5 °F 71.1 °F 67% 29.87 in 10.0 mi South 4.6 mph - N/A   Partly Cloudy
7:53 PM 82.0 °F 85.9 °F 70.0 °F 67% 29.90 in 10.0 mi SE 4.6 mph - N/A   Scattered Clouds
8:53 PM 79.0 °F - 72.0 °F 79% 29.91 in 10.0 mi SE 6.9 mph - N/A   Clear
9:53 PM 77.0 °F - 72.0 °F 84% 29.92 in 10.0 mi ESE 3.5 mph - N/A   Clear
10:53 PM 75.9 °F - 72.0 °F 87% 29.93 in 10.0 mi South 3.5 mph - N/A   Clear
11:53 PM 75.9 °F - 71.1 °F 85% 29.94 in 10.0 mi Calm Calm - N/A   Clear